Regional Weather Roundup
Issued by NWS Boston, MA

Current Version | Previous Version | Text Only | Print | Product List | Glossary Off
Versions: 1 2 3 4 5 6 7 8 9 10 11 12 13 14 15 16 17 18 19 20 21 22 23 24 25 26 27 28 29 30 31 32 33 34 35 36 37 38 39 40 41 42 43 44 45 46 47 48 49 50
860 ASUS41 KBOX 222310 RWRBOX REGIONAL WEATHER ROUNDUP NATIONAL WEATHER SERVICE TAUNTON MA 700 PM EDT SAT APR 22 2017 NOTE: "FAIR" INDICATES FEW OR NO CLOUDS BELOW 12,000 FEET WITH NO SIGNIFICANT WEATHER AND/OR OBSTRUCTIONS TO VISIBILITY. MAZALL-230000- EASTERN MASSACHUSETTS CITY SKY/WX TMP DP RH WIND PRES REMARKS BOSTON CLOUDY 43 42 97 NE9 29.96R BEVERLY CLOUDY 43 41 93 VRB6 29.96R LAWRENCE CLOUDY 45 41 86 NE5 29.97R BEDFORD CLOUDY 45 40 82 NE6 29.94S BLUE HILL N/A 43 40 89 N7 29.92S NORWOOD CLOUDY 46 42 86 N5 29.94S MARSHFIELD CLOUDY 43 41 93 VRB7G16 29.94F PLYMOUTH CLOUDY 42 40 92 N12 29.94R TAUNTON CLOUDY 44 42 93 N5 29.93F NEW BEDFORD CLOUDY 44 42 93 N7 29.92S $$ MAZALL-230000- CAPE COD AND THE ISLANDS CITY SKY/WX TMP DP RH WIND PRES REMARKS FALMOUTH CLOUDY 41 41 100 MISG 29.93 HYANNIS CLOUDY 43 41 93 N17G25 29.89R CHATHAM CLOUDY 43 42 97 N8 29.91R PROVINCETOWN CLOUDY 42 40 92 N18 29.93S NANTUCKET CLOUDY 44 41 89 N22G29 29.89S MARTHAS VNYRD CLOUDY 45 41 86 N20 29.91R $$ MAZALL-230000- CENTRAL AND WESTERN MASSACHUSETTS CITY SKY/WX TMP DP RH WIND PRES REMARKS WORCESTER CLOUDY 45 41 86 NE5 29.92S FITCHBURG CLOUDY 48 42 80 VRB3 29.95R ORANGE CLOUDY 50 43 77 N7 29.93S SPRINGFIELD CLOUDY 54 41 61 N5 29.92R WESTFIELD CLOUDY 54 45 71 NW6 29.93R NORTH ADAMS CLOUDY 50 37 61 W6 29.95R PITTSFIELD CLOUDY 48 36 63 NW10 29.93S $$ RIZALL-230000- RHODE ISLAND CITY SKY/WX TMP DP RH WIND PRES REMARKS PROVIDENCE CLOUDY 47 45 93 N10 29.93F NEWPORT LGT RAIN 46 45 96 N8 29.91F BLOCK ISLAND CLOUDY 47 44 90 N6 29.94R SMITHFIELD CLOUDY 45 43 93 N7 29.93F WESTERLY LGT RAIN 50 48 93 CALM 29.94R $$ CTZALL-230000- CONNECTICUT CITY SKY/WX TMP DP RH WIND PRES REMARKS BRADLEY INTL CLOUDY 54 43 66 NW3 29.93R HARTFORD CLOUDY 54 45 71 CALM 29.93S BRIDGEPORT MOCLDY 51 46 83 SW6 29.93S DANBURY MOCLDY 53 44 71 N5 29.94S GROTON CLOUDY 48 46 93 S3 29.93R NEW HAVEN CLOUDY 49 46 90 VRB3 29.93S CHESTER FAIR 52 46 82 CALM 29.92S MERIDEN CLOUDY 55 47 74 CALM 29.93S WILLIMANTIC CLOUDY 55 45 68 CALM 29.93R OXFORD CLOUDY 52 37 58 N12 29.95S $$ MEZ002-015-021-024-NHZ003-005-008-011-012-014-VTZ005-008-230000- NORTHERN NEW ENGLAND CITY SKY/WX TMP DP RH WIND PRES REMARKS PORTLAND ME CLOUDY 41 38 89 VRB7 29.97R BANGOR ME CLOUDY 38 37 97 NE5 29.96F FOG CONCORD NH CLOUDY 47 40 76 NW3 29.95R MANCHESTER NH CLOUDY 47 39 74 NW6 29.94S NASHUA NH CLOUDY 46 42 86 N5 29.96R PORTSMOUTH NH CLOUDY 43 39 86 N7 29.95R JAFFREY NH CLOUDY 46 45 96 CALM 29.93S KEENE NH CLOUDY 49 41 74 NW5 29.95R BURLINGTON VT CLOUDY 47 38 71 NW8 29.99S MT. WASHINGTON FRZ DRZL 28 28 100 NW32 N/A VSB 1/16WCI 12 $$ NYZ052-076-230000- EASTERN NEW YORK CITY SKY/WX TMP DP RH WIND PRES REMARKS ALBANY CLOUDY 51 38 60 W15 29.97R NEW YORK CITY CLOUDY 55 48 77 NE5 29.94S $$ ANZALL-230000- MARINE OBSERVATIONS STATION/POSITION TIME TEMP WIND PRES VSBY WAVE AIR SEA DIR/SP/G HT/PER (UTC) (F) (DEG/KT/KT) (MB) (MI) (FT/S) BOSTON BUOY 2150 42 45 10/ 17/ 19 1012.6 5/ 7 BUZZARDS BAY 2300 45 20/ 9/ 11 1013.5R NANTUCKET SOUND 2250 48 1012.0R 3/ 4 MASS BAY-STELLWA 2204 42 45 10/ 16/ 19 1013.0R 4/ 8 ISLE OF SHOALS 2300 41 20/ 12/ 13 1014.4R S OF BLOCK IS 2255 46 N/A 4/10 $$ ......................KEY......................... SKY/WX - SKY CONDITION/PRESENT WEATHER TMP - TEMPERATURE IN FAHRENHEIT DWPT - DEWPOINT IN FAHRENHEIT RH - RELATIVE HUMIDITY IN PERCENT WIND - DIRECTION AND SPEED IN MPH PRES - MEAN SEA LEVEL PRESSURE IN INCHES OF HG WCI - WIND CHILL INDEX VSB - VISIBILITY IN MILES HX - HEAT INDEX TC - TEMPERATURE IN CELSIUS VRB - VARIABLE WIND DIRECTION N/A - NOT AVAILABLE

USA.gov is the U.S. government's official web portal to all federal, state and local government web resources and services.